| time (UTC) | temp F | wind direction | speed MPH | gust MPH | rain 1hr in | rain 24hr in | rain mn in | humidity % | barometer mb |
| 20260901191555 | 95 | 5 | 2.0 | 8.0 | 0.00 | 0.00 | 0.00 | 64 | 1014.1 |
| 20260901190114 | 95 | 5 | 1.0 | 10.0 | 0.00 | 0.00 | 0.00 | 68 | 1014.2 |
| 20260901184604 | 94 | 5 | 1.0 | 10.0 | 0.00 | 0.00 | 0.00 | 69 | 1014.3 |
| 20260901183055 | 94 | 5 | 2.0 | 8.0 | 0.00 | 0.00 | 0.00 | 67 | 1014.4 |
| 20260901181552 | 93 | 5 | 2.0 | 5.0 | 0.00 | 0.00 | 0.00 | 69 | 1014.6 |
| 20260901174604 | 92 | 5 | 3.0 | 6.0 | 0.00 | 0.00 | 0.00 | 69 | 1014.8 |
| 20260901173056 | 91 | 5 | 1.0 | 5.0 | 0.00 | 0.00 | 0.00 | 72 | 1014.6 |
| 20260901171607 | 91 | 5 | 2.0 | 6.0 | 0.00 | 0.00 | 0.00 | 71 | 1014.7 |
| 20260901170157 | 90 | 5 | 2.0 | 6.0 | 0.00 | 0.00 | 0.00 | 72 | 1014.8 |
| 20260901164557 | 90 | 5 | 1.0 | 4.0 | 0.00 | 0.00 | 0.00 | 74 | 1014.8 |
| 20260901163107 | 89 | 5 | 2.0 | 6.0 | 0.00 | 0.00 | 0.00 | 71 | 1014.9 |
| 20260901161613 | 90 | 5 | 2.0 | 5.0 | 0.00 | 0.00 | 0.00 | 71 | 1014.7 |
| 20260901160105 | 89 | 5 | 1.0 | 4.0 | 0.00 | 0.00 | 0.00 | 72 | 1014.8 |
| 20260901154605 | 89 | 5 | 0.0 | 5.0 | 0.00 | 0.00 | 0.00 | 73 | 1014.7 |
| 20260901153121 | 88 | 5 | 1.0 | 4.0 | 0.00 | 0.00 | 0.00 | 72 | 1014.7 |
| 20260901151604 | 87 | 5 | 0.0 | 3.0 | 0.00 | 0.00 | 0.00 | 74 | 1014.5 |
| 20260901144559 | 85 | 0 | 1.0 | 5.0 | 0.00 | 0.04 | 0.00 | 77 | 1014.7 |
| 20260901143056 | 83 | 0 | 1.0 | 4.0 | 0.00 | 0.04 | 0.00 | 78 | 1014.7 |
| 20260901141601 | 82 | 5 | 2.0 | 9.0 | 0.00 | 0.04 | 0.00 | 81 | 1014.7 |
| 20260901140100 | 80 | 5 | 1.0 | 6.0 | 0.00 | 0.04 | 0.00 | 85 | 1014.5 |
| 20260901134558 | 78 | 9 | 1.0 | 4.0 | 0.00 | 0.18 | 0.00 | 90 | 1014.6 |
| 20260901133054 | 76 | 0 | 0.0 | 4.0 | 0.00 | 0.18 | 0.00 | 92 | 1014.7 |
| 20260901131615 | 75 | 5 | 0.0 | 3.0 | 0.00 | 0.18 | 0.00 | 93 | 1014.9 |
| 20260901130103 | 74 | 0 | 0.0 | 3.0 | 0.00 | 0.18 | 0.00 | 94 | 1015.1 |
| 20260901124559 | 74 | 360 | 0.0 | 2.0 | 0.00 | 0.19 | 0.00 | 94 | 1014.9 |
| 20260901123105 | 74 | 0 | 0.0 | 3.0 | 0.00 | 0.19 | 0.00 | 94 | 1014.9 |
| 20260901121601 | 73 | 0 | 0.0 | 2.0 | 0.00 | 0.19 | 0.00 | 94 | 1014.5 |
| 20260901120105 | 73 | 0 | 0.0 | 2.0 | 0.00 | 0.19 | 0.00 | 94 | 1014.3 |
| 20260901114601 | 73 | 0 | 0.0 | 2.0 | 0.00 | 0.20 | 0.00 | 93 | 1014.3 |
| 20260901113109 | 73 | 360 | 0.0 | 2.0 | 0.00 | 0.20 | 0.00 | 93 | 1014.3 |
| 20260901111606 | 73 | 0 | 0.0 | 0.0 | 0.00 | 0.20 | 0.00 | 93 | 1014.0 |
| 20260901110059 | 73 | 0 | 0.0 | 0.0 | 0.00 | 0.20 | 0.00 | 92 | 1013.7 |
| 20260901104608 | 73 | 0 | 0.0 | 2.0 | 0.00 | 0.20 | 0.00 | 92 | 1013.8 |
| 20260901103058 | 73 | 360 | 0.0 | 3.0 | 0.00 | 0.20 | 0.00 | 92 | 1013.8 |
| 20260901101606 | 73 | 0 | 0.0 | 2.0 | 0.00 | 0.20 | 0.00 | 92 | 1013.6 |
| 20260901100106 | 73 | 0 | 0.0 | 3.0 | 0.00 | 0.20 | 0.00 | 92 | 1013.8 |
| 20260901094606 | 73 | 360 | 1.0 | 3.0 | 0.00 | 0.20 | 0.00 | 91 | 1013.7 |
| 20260901093101 | 74 | 0 | 0.0 | 2.0 | 0.00 | 0.20 | 0.00 | 91 | 1013.6 |
| 20260901091557 | 74 | 360 | 0.0 | 2.0 | 0.00 | 0.20 | 0.00 | 91 | 1013.6 |
| 20260901084609 | 74 | 360 | 0.0 | 2.0 | 0.00 | 0.20 | 0.00 | 90 | 1013.4 |
| 20260901083058 | 74 | 360 | 0.0 | 3.0 | 0.00 | 0.20 | 0.00 | 89 | 1013.5 |
| 20260901081558 | 75 | 0 | 0.0 | 4.0 | 0.00 | 0.20 | 0.00 | 89 | 1013.6 |
| 20260901080104 | 75 | 360 | 1.0 | 4.0 | 0.00 | 0.20 | 0.00 | 89 | 1013.4 |
| 20260901074559 | 75 | 360 | 1.0 | 3.0 | 0.00 | 0.20 | 0.00 | 89 | 1013.4 |
| 20260901073059 | 75 | 360 | 0.0 | 2.0 | 0.00 | 0.20 | 0.00 | 89 | 1013.4 |
| 20260901071555 | 75 | 0 | 0.0 | 4.0 | 0.00 | 0.20 | 0.00 | 89 | 1013.4 |
| 20260901064559 | 75 | 0 | 0.0 | 3.0 | 0.00 | 0.20 | 0.00 | 89 | 1013.4 |
| 20260901063059 | 75 | 360 | 1.0 | 3.0 | 0.00 | 0.20 | 0.00 | 88 | 1013.2 |
| 20260901061557 | 75 | 0 | 1.0 | 3.0 | 0.00 | 0.20 | 0.00 | 89 | 1013.2 |
| 20260901060105 | 76 | 0 | 0.0 | 6.0 | 0.00 | 0.20 | 0.00 | 88 | 1013.4 |
| 20260901054556 | 76 | 360 | 0.0 | 3.0 | 0.00 | 0.20 | 0.00 | 89 | 1013.4 |
| 20260901053119 | 76 | 360 | 0.0 | 6.0 | 0.00 | 0.20 | 0.00 | 89 | 1013.4 |
| 20260901051558 | 76 | 0 | 0.0 | 4.0 | 0.00 | 0.20 | 0.00 | 89 | 1013.4 |
| 20260901050058 | 76 | 360 | 0.0 | 3.0 | 0.00 | 0.20 | 0.00 | 89 | 1013.4 |
| 20260901044557 | 76 | 0 | 0.0 | 3.0 | 0.00 | 0.20 | 0.20 | 88 | 1013.5 |
| 20260901043052 | 77 | 0 | 0.0 | 4.0 | 0.00 | 0.20 | 0.20 | 88 | 1013.5 |
| 20260901041602 | 77 | 0 | 0.0 | 2.0 | 0.00 | 0.20 | 0.20 | 88 | 1013.6 |
| 20260901040126 | 77 | 0 | 0.0 | 4.0 | 0.00 | 0.20 | 0.20 | 88 | 1013.5 |
| 20260901034559 | 77 | 9 | 0.0 | 4.0 | 0.00 | 0.20 | 0.20 | 88 | 1013.6 |
| 20260901033106 | 77 | 5 | 0.0 | 5.0 | 0.00 | 0.20 | 0.20 | 89 | 1013.3 |
| 20260901031607 | 77 | 0 | 0.0 | 2.0 | 0.00 | 0.20 | 0.20 | 89 | 1013.4 |
| 20260901024559 | 77 | 360 | 0.0 | 3.0 | 0.00 | 0.21 | 0.20 | 90 | 1013.5 |
| 20260901023103 | 76 | 5 | 0.0 | 3.0 | 0.00 | 0.21 | 0.20 | 90 | 1013.9 |
| 20260901021602 | 76 | 0 | 0.0 | 0.0 | 0.00 | 0.21 | 0.20 | 90 | 1013.7 |
| 20260901014607 | 77 | 0 | 0.0 | 1.0 | 0.00 | 0.21 | 0.20 | 88 | 1013.5 |
| 20260901013117 | 78 | 0 | 0.0 | 0.0 | 0.00 | 0.21 | 0.20 | 87 | 1013.5 |
| 20260901011613 | 78 | 0 | 0.0 | 0.0 | 0.00 | 0.21 | 0.20 | 86 | 1013.4 |
| 20260901010108 | 79 | 0 | 0.0 | 0.0 | 0.00 | 0.21 | 0.20 | 85 | 1013.3 |
| 20260901004611 | 80 | 0 | 0.0 | 0.0 | 0.00 | 0.21 | 0.20 | 84 | 1013.3 |
| 20260901003104 | 80 | 0 | 0.0 | 4.0 | 0.00 | 0.21 | 0.20 | 84 | 1013.3 |
| 20260901001609 | 81 | 0 | 1.0 | 5.0 | 0.00 | 0.21 | 0.20 | 84 | 1013.4 |
| 20260901000108 | 81 | 9 | 0.0 | 3.0 | 0.00 | 0.21 | 0.20 | 84 | 1012.8 |
| 20260831234608 | 81 | 5 | 2.0 | 4.0 | 0.00 | 0.22 | 0.20 | 83 | 1012.2 |
| 20260831233058 | 82 | 0 | 0.0 | 2.0 | 0.00 | 0.22 | 0.20 | 81 | 1013.7 |
| 20260831231610 | 83 | 0 | 0.0 | 0.0 | 0.00 | 0.22 | 0.20 | 82 | 1013.5 |
| 20260831230140 | 83 | 0 | 0.0 | 0.0 | 0.00 | 0.22 | 0.20 | 81 | 1012.9 |
| 20260831224621 | 84 | 0 | 0.0 | 0.0 | 0.00 | 0.22 | 0.20 | 81 | 1012.8 |
| 20260831223105 | 84 | 0 | 0.0 | 3.0 | 0.00 | 0.22 | 0.20 | 75 | 1013.3 |
| 20260831221629 | 85 | 0 | 0.0 | 2.0 | 0.00 | 0.22 | 0.20 | 76 | 1012.8 |
| 20260831214610 | 86 | 0 | 0.0 | 3.0 | 0.00 | 0.22 | 0.20 | 73 | 1012.4 |
| 20260831213056 | 87 | 0 | 0.0 | 4.0 | 0.00 | 0.22 | 0.20 | 69 | 1012.7 |
| 20260831211614 | 87 | 0 | 2.0 | 6.0 | 0.00 | 0.22 | 0.20 | 69 | 1012.7 |
| 20260831210057 | 87 | 5 | 1.0 | 5.0 | 0.00 | 0.22 | 0.20 | 69 | 1012.9 |
| 20260831204606 | 88 | 9 | 1.0 | 5.0 | 0.00 | 0.25 | 0.20 | 67 | 1012.9 |
| 20260831203100 | 87 | 9 | 2.0 | 10.0 | 0.00 | 0.25 | 0.20 | 71 | 1013.2 |
| 20260831201558 | 86 | 5 | 1.0 | 6.0 | 0.00 | 0.25 | 0.20 | 69 | 1013.2 |
| 20260831200056 | 86 | 5 | 1.0 | 8.0 | 0.00 | 0.25 | 0.20 | 69 | 1012.8 |
| 20260831194702 | 87 | 5 | 2.0 | 10.0 | 0.00 | 0.25 | 0.20 | 66 | 1012.7 |
| 20260831193100 | 88 | 5 | 2.0 | 10.0 | 0.00 | 0.25 | 0.20 | 63 | 1013.1 |